Вернуться в каталог

FENGYUN 1C DEB

АктивенSSO
NORAD 37912·DEBRIS·🇨🇳 China

Запущен May 10, 1999 с Taiyuan Satellite Launch Center

Loading…

Ближайшие Пролёты (ближайшие 24 часа)

TLE

СвежийSource: Space-Track

Эпоха: Sep 14, 2026, 10:03 UTC

1 37912U 99025ENM 26257.41880009  .00002560  00000-0  13337-2 0  9991
2 37912  99.2383 239.4635 0090923   9.5378 350.7493 14.13418948811807

Отслеживайте FENGYUN 1C DEB в реальном времени с AllMySat

Download on the App Store